User: anonymous   Login
Location: Bijele Vode
(45.2833°N, 16.2000°E)
Time: 17:27:31
(UTC+00:00)
Language:

DOVE 4 - Orbit

View from above orbital plane
View from above orbital plane
View from above satellite
View from above satellite

Ground track
Ground track

The orbit data is extracted from the following two-line orbital elements,

1 39430U 13066Q   21341.41345534  .00000617  00000-0  12006-3 0  9991
2 39430  97.8144 254.5438 0149129 290.4017  68.1206 14.59767343428279
Epoch (UTC): 07 December 2021 09:55:22
Eccentricity: 0.0149129
inclination: 97.8144°
perigee height: 588 km
apogee height: 799 km
right ascension of ascending node: 254.5438°
argument of perigee: 290.4017°
revolutions per day: 14.59767343
mean anomaly at epoch: 68.1206°
orbit number at epoch: 42827

The dashed part of the orbit path shows where the satellite is in the earth's shadow,  

DLR